Regional Weather Roundup
Issued by NWS

Home | Current Version | Previous Version | Text Only | Print | Product List | Glossary Off
Versions: 1 2 3 4 5 6 7 8 9 10 11 12 13 14 15 16 17 18 19 20 21 22 23 24 25 26 27

000
ASUS45 KCYS 220410
RWRWY

WYOMING REGIONAL WEATHER ROUNDUP
NATIONAL WEATHER SERVICE CHEYENNE WY
1000 PM MDT MON AUG 21 2017

NOTE:  "FAIR" INDICATES FEW OR NO CLOUDS BELOW 12,000 FEET
WITH NO SIGNIFICANT WEATHER AND/OR OBSTRUCTIONS TO VISIBILITY.

WYZ001-220500-
YELLOWSTONE NATIONAL PARK

CITY           SKY/WX    TMP DP  RH WIND       PRES   REMARKS
LK YELLOWSTONE   N/A     50  34  54 NW5       30.42R
W YELLOWSTONE  NOT AVBL

$$
WYZ002>013-054>058-071-098>099-220500-
NORTHERN WYOMING

CITY           SKY/WX    TMP DP  RH WIND       PRES   REMARKS
JACKSON        FAIR      51  35  54 N8        30.31R
CODY           FAIR      63  32  31 CALM      30.27R
GREYBULL       FAIR      71  32  23 NW6       30.15
WORLAND        FAIR      70  33  25 E9        30.18R
SHERIDAN       FAIR      57  41  55 NW5       30.22R
BUFFALO        FAIR      58  34  40 W5        30.28R
GILLETTE       FAIR      52  34  50 CALM      30.24R
HULETT         FAIR      57  36  44 SE9       30.25S
NEWCASTLE      FAIR      64  32  29 NW5       30.24R

$$
WYZ014>020-022>026-101>103-220500-
CENTRAL WYOMING

CITY           SKY/WX    TMP DP  RH WIND       PRES   REMARKS
BIG PINEY      FAIR      55  25  31 N13       30.34R
PINEDALE       FAIR      52  28  40 W3        30.35R
DUBOIS         FAIR      59  27  29 SW5       30.35R
LANDER           N/A    N/A N/A N/A MISG      30.28R
RIVERTON       FAIR      69  36  29 NE8       30.26R
CASPER         FAIR      61  36  39 NE9       30.26R
DOUGLAS        FAIR      60  39  45 E12       30.26R

$$
WYZ021-027>030-104>119-220500-
SOUTHERN WYOMING

CITY           SKY/WX    TMP DP  RH WIND       PRES   REMARKS
EVANSTON       FAIR      66  35  31 S6        30.36R
KEMMERER         N/A     61  28  29 N8        30.36S
FORT BRIDGER   FAIR      66  28  24 W7        30.37R
ROCK SPRINGS   FAIR      72  26  18 W12       30.29R
RAWLINS        FAIR      66  36  32 N6        30.31R
SARATOGA       FAIR      57  41  54 SE10      30.31R
LARAMIE        FAIR      60  39  45 SE13      30.36R
CHEYENNE       FAIR      61  44  53 E7        30.33R
TORRINGTON     FAIR      61  45  55 NE9       30.21R
PINE BLUFFS    FAIR      57  45  62 CALM      30.28S

$$




USA.gov is the U.S. government's official web portal to all federal, state and local government web resources and services.